Kecskemet, Hungary

5:25 AM CEST on April 25, 2018 (GMT +0200)
Kecskemet

Weather History for LHKE - November, 2012

Change the Weather History Date:

Thursday, November 15, 2012

  Actual Average (LHBP) Record (LHBP)
Temperature  
Mean Temperature 42 °F -  
Max Temperature 46 °F 47 °F 69 °F (2002)
Min Temperature 37 °F 33 °F 21 °F (2011)
Degree Days  
Heating Degree Days 24    
Moisture  
Dew Point 40 °F    
Average Humidity 96    
Maximum Humidity 100    
Minimum Humidity 87    
Precipitation  
Precipitation 0.00 in - - ()
Sea Level Pressure  
Sea Level Pressure 30.37 in    
Wind  
Wind Speed 2 mph ()    
Max Wind Speed 4 mph    
Max Gust Speed -    
Visibility 2.4 miles    
Events Fog    
Averages and records for this station are not official NWS values.
T = Trace of Precipitation, MM = Missing Value Source: Averaged Metar Reports

Daily Weather History Graph

Daily Weather History Graph

Search for Another Location

Airport or City:

Astronomy

Nov. 15, 2012 Rise Set
Actual Time 6:44 AM CET 4:06 PM CET
Civil Twilight 6:11 AM CET 4:39 PM CET
Nautical Twilight 5:34 AM CET 5:16 PM CET
Astronomical Twilight 4:58 AM CET 5:52 PM CET
Moon 8:25 AM CET (11/15) 5:33 PM CET (11/15)
Length of Visible Light 10h 28m
Length of Day
9h 21m
Waxing Crescent, 4% of the Moon is Illuminated
Nov 15
Waxing Crescent
Nov 20
First Quarter
Nov 28
Full
Dec 6
Last Quarter
Dec 13
New

Hourly Weather History & Observations

Time (CET) Temp. Windchill Dew Point Humidity Pressure Visibility Wind Dir Wind Speed Gust Speed Precip Events Conditions
12:15 AM 39.2 °F - 37.4 °F 93% 30.45 in 2.5 mi Calm Calm - N/A   Mostly Cloudy
12:45 AM 39.2 °F - 39.2 °F 100% 30.45 in 2.5 mi SSW 2.2 mph - N/A   Overcast
1:15 AM 39.2 °F - 39.2 °F 100% 30.45 in 1.9 mi SSW 2.2 mph - N/A   Overcast
1:29 AM 39.2 °F - 39.2 °F 100% 30.45 in 0.9 mi South 2.2 mph - N/A   Overcast
1:45 AM 39.2 °F - 39.2 °F 100% 30.45 in 0.6 mi South 2.2 mph - N/A   Overcast
1:53 AM 39.2 °F - 39.2 °F 100% 30.45 in 0.4 mi WSW 2.2 mph - N/A Fog Fog
2:00 AM - - - N/A% - 1.9 mi Variable 4.5 mph - N/A Fog Overcast
2:06 AM 39.2 °F - 39.2 °F 100% 30.45 in 0.2 mi Calm Calm - N/A Fog Fog
2:15 AM 39.2 °F - 39.2 °F 100% 30.45 in 0.2 mi South 2.2 mph - N/A Fog Fog
2:45 AM 37.4 °F - 37.4 °F 100% 30.42 in 0.2 mi Calm Calm - N/A Fog Fog
3:15 AM 37.4 °F - 37.4 °F 100% 30.42 in 0.2 mi NE 2.2 mph - N/A Fog Fog
3:45 AM 37.4 °F - 37.4 °F 100% 30.42 in 0.2 mi ENE 2.2 mph - N/A Fog Fog
4:15 AM 37.4 °F - 37.4 °F 100% 30.42 in 0.2 mi Calm Calm - N/A Fog Fog
4:45 AM 37.4 °F - 37.4 °F 100% 30.42 in 0.2 mi South 2.2 mph - N/A Fog Fog
5:15 AM 37.4 °F - 37.4 °F 100% 30.42 in 0.2 mi North 2.2 mph - N/A Fog Fog
5:45 AM - - - N/A% - 0.4 mi Variable 4.5 mph - N/A Fog Fog
6:15 AM 37.4 °F - 37.4 °F 100% 30.39 in 0.2 mi North 2.2 mph - N/A Fog Fog
6:45 AM 37.4 °F 33.9 °F 37.4 °F 100% 30.42 in 0.2 mi North 4.5 mph - N/A Fog Fog
7:07 AM 37.4 °F - 37.4 °F 100% 30.39 in 0.1 mi NE 2.2 mph - N/A Fog Fog
7:15 AM 37.4 °F - 37.4 °F 100% 30.39 in 0.1 mi NE 2.2 mph - N/A Fog Fog
7:35 AM 37.4 °F - 37.4 °F 100% 30.42 in 0.2 mi NNE 2.2 mph - N/A Fog Fog
7:45 AM 37.4 °F - 37.4 °F 100% 30.42 in 0.5 mi NE 2.2 mph - N/A Fog Fog
8:15 AM 37.4 °F - 37.4 °F 100% 30.42 in 0.7 mi North 2.2 mph - N/A   Overcast
8:35 AM - - - N/A% - 0.5 mi Variable 4.5 mph - N/A Fog Fog
8:45 AM - - - N/A% - 1.6 mi Variable 4.5 mph - N/A   Scattered Clouds
9:15 AM 39.2 °F - 39.2 °F 100% 30.39 in 1.9 mi ENE 2.2 mph - N/A   Mostly Cloudy
9:45 AM 39.2 °F - 39.2 °F 100% 30.39 in 2.2 mi NE 2.2 mph - N/A   Mostly Cloudy
10:15 AM - - - N/A% - 1.6 mi Variable 4.5 mph - N/A   Mostly Cloudy
10:30 AM 41.0 °F - 41.0 °F 100% 30.39 in 3.1 mi NE 2.2 mph - N/A   Mostly Cloudy
10:45 AM 42.8 °F - 42.8 °F 100% 30.39 in 3.1 mi NE 2.2 mph - N/A   Overcast
11:15 AM 42.8 °F - 41.0 °F 93% 30.39 in 3.1 mi North 2.2 mph - N/A   Overcast
11:45 AM - - - N/A% - 3.1 mi Variable 4.5 mph - N/A   Mostly Cloudy
12:15 PM 46.4 °F - 42.8 °F 87% 30.36 in 3.7 mi NNE 2.2 mph - N/A   Mostly Cloudy
12:45 PM 46.4 °F - 42.8 °F 87% 30.33 in 4.3 mi NNE 2.2 mph - N/A   Mostly Cloudy
1:15 PM 46.4 °F 44.4 °F 42.8 °F 87% 30.33 in 4.3 mi NNE 4.5 mph - N/A   Mostly Cloudy
1:45 PM 46.4 °F 44.4 °F 42.8 °F 87% 30.33 in 4.3 mi NNE 4.5 mph - N/A   Mostly Cloudy
2:15 PM 46.4 °F 44.4 °F 42.8 °F 87% 30.33 in 4.3 mi ENE 4.5 mph - N/A   Mostly Cloudy
2:45 PM - - - N/A% - 3.1 mi Variable 4.5 mph - N/A   Mostly Cloudy
3:15 PM 46.4 °F 44.4 °F 42.8 °F 87% 30.30 in 4.3 mi East 4.5 mph - N/A   Mostly Cloudy
3:45 PM 44.6 °F 42.3 °F 42.8 °F 93% 30.30 in 4.3 mi East 4.5 mph - N/A   Overcast
4:15 PM 44.6 °F - 42.8 °F 93% 30.30 in 4.3 mi East 2.2 mph - N/A   Overcast
4:45 PM 44.6 °F - 42.8 °F 93% 30.30 in 4.3 mi ENE 2.2 mph - N/A   Overcast
5:15 PM 44.6 °F - 42.8 °F 93% 30.30 in 4.3 mi ENE 2.2 mph - N/A   Overcast
5:45 PM - - - N/A% - 4.3 mi Variable 4.5 mph - N/A   Mostly Cloudy
6:15 PM 44.6 °F - 42.8 °F 93% 30.30 in 4.3 mi Calm Calm - N/A   Overcast
6:45 PM 44.6 °F 42.3 °F 42.8 °F 93% 30.30 in 4.3 mi North 4.5 mph - N/A   Overcast
7:15 PM 44.6 °F - 42.8 °F 93% 30.30 in 4.3 mi NNW 2.2 mph - N/A   Overcast
7:45 PM 44.6 °F - 42.8 °F 93% 30.30 in 4.3 mi North 2.2 mph - N/A   Overcast
8:15 PM 44.6 °F - 42.8 °F 93% 30.30 in 4.3 mi NNW 2.2 mph - N/A   Overcast
8:45 PM - - - N/A% - 3.7 mi Variable 4.5 mph - N/A   Mostly Cloudy
9:15 PM 44.6 °F - 42.8 °F 93% 30.30 in 4.3 mi Calm Calm - N/A   Overcast
9:45 PM 42.8 °F - 42.8 °F 100% 30.30 in 4.3 mi Calm Calm - N/A   Overcast
10:15 PM 42.8 °F - 41.0 °F 93% 30.30 in 3.7 mi Calm Calm - N/A   Overcast
10:45 PM 42.8 °F - 41.0 °F 93% 30.30 in 3.7 mi Calm Calm - N/A   Overcast
11:00 PM - - - N/A% - 3.1 mi Variable 4.5 mph - N/A   Overcast
11:15 PM 42.8 °F 40.2 °F 41.0 °F 93% 30.30 in 3.1 mi North 4.5 mph - N/A   Overcast
11:45 PM - - - N/A% - 3.1 mi North - - N/A   Overcast